GW4729 Weather Reports


time (UTC)temp
C
wind
direction
speed
KPH
gust
KPH
rain 1hr
cm
rain 24hr
cm
rain mn
cm
humidity
%
barometer
mb
20260507204505 19 223 0.0 3.2 0.00 0.00 0.00 42 1009.1
20260507204003 20 274 6.4 6.4 0.00 0.00 0.00 36 1009.4
20260507203500 19 279 0.0 0.0 0.00 0.00 0.00 40 1009.3
20260507202957 19 336 1.6 3.2 0.00 0.00 0.00 43 1009.5
20260507202453 20 46 1.6 3.2 0.00 0.00 0.00 40 1009.4
20260507201949 20 339 0.0 4.8 0.00 0.00 0.00 40 1009.3
20260507201444 20 2 1.6 1.6 0.00 0.00 0.00 37 1009.5
20260507200941 20 13 1.6 3.2 0.00 0.00 0.00 36 1009.4
20260507200436 20 62 3.2 3.2 0.00 0.00 0.00 35 1009.6
20260507195933 20 247 0.0 1.6 0.00 0.00 0.00 37 1009.6
20260507195431 20 270 1.6 1.6 0.00 0.00 0.00 40 1009.5
20260507194928 20 124 1.6 3.2 0.00 0.00 0.00 39 1009.7
20260507194424 19 358 0.0 1.6 0.00 0.00 0.00 44 1009.8
20260507193920 20 287 4.8 4.8 0.00 0.00 0.00 39 1009.7
20260507193418 19 343 3.2 9.7 0.00 0.00 0.00 38 1010.0
20260507192914 20 274 1.6 6.4 0.00 0.00 0.00 38 1010.1
20260507192410 21 197 0.0 0.0 0.00 0.00 0.00 37 1010.2
20260507191907 20 195 1.6 3.2 0.00 0.00 0.00 37 1010.2
20260507191403 20 276 1.6 4.8 0.00 0.00 0.00 35 1010.5
20260507190859 20 346 0.0 3.2 0.00 0.00 0.00 37 1010.2
20260507190358 21 146 0.0 1.6 0.00 0.00 0.00 35 1010.2
20260507185856 21 16 1.6 1.6 0.00 0.00 0.00 39 1010.6
20260507185353 20 281 0.0 3.2 0.00 0.00 0.00 36 1010.5
20260507184850 19 349 0.0 1.6 0.00 0.00 0.00 37 1010.8
20260507184348 19 69 1.6 3.2 0.00 0.00 0.00 40 1010.9
20260507183844 19 280 0.0 4.8 0.00 0.00 0.00 47 1010.9
20260507183342 19 114 3.2 4.8 0.00 0.00 0.00 38 1010.9
20260507182839 20 226 1.6 3.2 0.00 0.00 0.00 41 1010.9
20260507182335 20 354 0.0 1.6 0.00 0.00 0.00 40 1011.0
20260507181831 18 245 0.0 3.2 0.00 0.00 0.00 41 1010.9
20260507181327 19 286 6.4 9.7 0.00 0.00 0.00 39 1011.1
20260507180825 19 116 1.6 3.2 0.00 0.00 0.00 39 1011.0
20260507180321 18 140 3.2 3.2 0.00 0.00 0.00 40 1011.2
20260507175817 19 52 0.0 3.2 0.00 0.00 0.00 39 1011.3
20260507175314 18 273 3.2 6.4 0.00 0.00 0.00 41 1011.3
20260507174811 19 325 4.8 9.7 0.00 0.00 0.00 40 1011.6
20260507174309 18 358 1.6 4.8 0.00 0.00 0.00 42 1011.6
20260507173806 18 336 3.2 4.8 0.00 0.00 0.00 42 1011.8
20260507173303 17 261 1.6 6.4 0.00 0.00 0.00 44 1011.7
20260507172759 18 89 3.2 6.4 0.00 0.00 0.00 42 1011.8
20260507172256 18 301 3.2 4.8 0.00 0.00 0.00 43 1011.8
20260507171752 17 327 4.8 9.7 0.00 0.00 0.00 42 1012.2
20260507171249 17 263 1.6 3.2 0.00 0.00 0.00 43 1012.3
20260507170746 18 260 3.2 4.8 0.00 0.00 0.00 40 1012.3
20260507170243 17 331 1.6 4.8 0.00 0.00 0.00 43 1012.3
20260507165738 17 315 1.6 1.6 0.00 0.00 0.00 43 1012.3
20260507165235 17 342 6.4 11.3 0.00 0.00 0.00 41 1012.5
20260507164731 16 278 4.8 6.4 0.00 0.00 0.00 46 1012.7
20260507164228 17 314 4.8 4.8 0.00 0.00 0.00 47 1012.6
20260507163725 18 270 3.2 4.8 0.00 0.00 0.00 42 1012.6
20260507163223 17 99 3.2 4.8 0.00 0.00 0.00 45 1012.6
20260507162719 17 278 6.4 9.7 0.00 0.00 0.00 47 1012.6
20260507162215 17 347 1.6 3.2 0.00 0.00 0.00 41 1012.8
20260507161712 17 253 0.0 1.6 0.00 0.00 0.00 44 1012.9
20260507161208 17 226 0.0 4.8 0.00 0.00 0.00 44 1012.9
20260507160704 17 274 1.6 4.8 0.00 0.00 0.00 49 1013.0
20260507160201 17 115 1.6 4.8 0.00 0.00 0.00 40 1013.3
20260507155656 17 271 0.0 3.2 0.00 0.00 0.00 47 1013.2
20260507155153 16 279 8.0 9.7 0.00 0.00 0.00 42 1013.3
20260507154650 16 318 3.2 4.8 0.00 0.00 0.00 46 1013.3
20260507154148 16 189 0.0 6.4 0.00 0.00 0.00 48 1013.3
20260507153644 16 285 1.6 6.4 0.00 0.00 0.00 46 1013.3
20260507153140 16 271 6.4 9.7 0.00 0.00 0.00 45 1013.4
20260507152637 16 338 4.8 4.8 0.00 0.00 0.00 48 1013.5
20260507152132 16 259 3.2 4.8 0.00 0.00 0.00 47 1013.5
20260507151629 15 268 1.6 9.7 0.00 0.00 0.00 44 1013.6
20260507151126 15 297 8.0 11.3 0.00 0.00 0.00 48 1013.6
20260507150623 16 278 6.4 6.4 0.00 0.00 0.00 49 1013.5
20260507150120 15 281 3.2 4.8 0.00 0.00 0.00 47 1013.8
20260507145615 15 307 1.6 9.7 0.00 0.00 0.00 55 1013.6
20260507145113 15 280 3.2 4.8 0.00 0.00 0.00 47 1013.8
20260507144613 14 353 1.6 3.2 0.00 0.00 0.00 55 1014.1
20260507144112 14 292 4.8 6.4 0.00 0.00 0.00 54 1014.4
20260507143608 15 311 0.0 3.2 0.00 0.00 0.00 56 1014.4
20260507143106 15 311 1.6 6.4 0.00 0.00 0.00 52 1014.3
20260507142601 15 325 0.0 4.8 0.00 0.00 0.00 52 1014.4
20260507142058 14 345 3.2 4.8 0.00 0.00 0.00 49 1014.4
20260507141554 13 298 1.6 6.4 0.00 0.00 0.00 48 1014.5
20260507141051 14 303 0.0 3.2 0.00 0.00 0.00 53 1014.5
20260507140547 13 315 0.0 1.6 0.00 0.00 0.00 52 1014.7
20260507140045 13 277 0.0 3.2 0.00 0.00 0.00 51 1014.7
20260507135542 13 329 1.6 3.2 0.00 0.00 0.00 52 1014.9
20260507135039 13 304 1.6 3.2 0.00 0.00 0.00 51 1014.9
20260507134535 13 31 1.6 3.2 0.00 0.00 0.00 52 1014.9
20260507134031 13 334 3.2 4.8 0.00 0.00 0.00 55 1014.9
20260507133528 13 278 3.2 4.8 0.00 0.00 0.00 56 1015.0
20260507133026 12 265 1.6 3.2 0.00 0.00 0.00 52 1015.0
20260507132522 12 299 1.6 3.2 0.00 0.00 0.00 57 1014.9
20260507132018 12 322 1.6 3.2 0.00 0.00 0.00 56 1015.2
20260507131516 13 313 3.2 4.8 0.00 0.00 0.00 55 1015.1
20260507131013 12 320 1.6 1.6 0.00 0.00 0.00 61 1015.0
20260507130509 12 44 0.0 1.6 0.00 0.00 0.00 55 1015.0
20260507130008 12 283 1.6 1.6 0.00 0.00 0.00 60 1015.1
20260507125506 12 313 0.0 1.6 0.00 0.00 0.00 58 1014.9
20260507125003 12 316 1.6 3.2 0.00 0.00 0.00 60 1015.0
20260507124459 12 285 1.6 1.6 0.00 0.00 0.00 63 1015.0
20260507123957 12 306 1.6 3.2 0.00 0.00 0.00 60 1015.1
20260507123455 11 271 1.6 3.2 0.00 0.00 0.00 58 1015.0
20260507122951 11 329 0.0 1.6 0.00 0.00 0.00 59 1014.9
20260507122446 11 318 1.6 4.8 0.00 0.00 0.00 60 1014.8
20260507121943 11 314 1.6 6.4 0.00 0.00 0.00 64 1014.8
20260507121438 11 332 3.2 3.2 0.00 0.00 0.00 63 1014.9
20260507120935 11 323 1.6 3.2 0.00 0.00 0.00 62 1014.7
20260507120431 11 329 1.6 3.2 0.00 0.00 0.00 66 1014.8
20260507115928 11 332 0.0 1.6 0.00 0.00 0.00 65 1014.7
20260507115424 11 336 1.6 3.2 0.00 0.00 0.00 64 1014.6
20260507114919 11 291 0.0 1.6 0.00 0.00 0.00 67 1014.6
20260507114417 11 320 1.6 3.2 0.00 0.00 0.00 65 1014.6
20260507113914 11 334 0.0 1.6 0.00 0.00 0.00 66 1014.4
20260507113411 11 296 0.0 1.6 0.00 0.00 0.00 66 1014.4
20260507112908 11 303 0.0 0.0 0.00 0.00 0.00 68 1014.5
20260507112405 11 328 0.0 1.6 0.00 0.00 0.00 70 1014.5
20260507111904 11 328 0.0 1.6 0.00 0.00 0.00 69 1014.5
20260507111359 11 328 1.6 1.6 0.00 0.00 0.00 67 1014.8
20260507110855 11 300 0.0 1.6 0.00 0.00 0.00 68 1014.8
20260507110352 11 300 0.0 1.6 0.00 0.00 0.00 69 1014.5
20260507105849 11 331 0.0 0.0 0.00 0.00 0.00 69 1014.5
20260507105345 11 331 0.0 1.6 0.00 0.00 0.00 70 1014.4
20260507104842 11 331 0.0 0.0 0.00 0.00 0.00 71 1014.6
20260507104339 11 331 0.0 0.0 0.00 0.00 0.00 70 1014.2
20260507103835 11 330 0.0 0.0 0.00 0.00 0.00 69 1014.2
20260507103332 11 330 0.0 1.6 0.00 0.00 0.00 70 1014.1
20260507102828 11 330 0.0 0.0 0.00 0.00 0.00 70 1013.9
20260507102325 11 330 0.0 1.6 0.00 0.00 0.00 71 1013.9
20260507101822 11 330 0.0 0.0 0.00 0.00 0.00 70 1013.8
20260507101321 11 331 0.0 1.6 0.00 0.00 0.00 68 1013.8
20260507100819 11 325 0.0 1.6 0.00 0.00 0.00 69 1013.8
20260507100317 11 256 0.0 1.6 0.00 0.00 0.00 68 1013.8
20260507095815 11 254 0.0 0.0 0.00 0.00 0.00 70 1013.7
20260507095311 11 328 0.0 0.0 0.00 0.00 0.00 70 1013.8
20260507094808 11 316 0.0 3.2 0.00 0.00 0.00 69 1013.8
20260507094305 11 271 0.0 0.0 0.00 0.00 0.00 69 1013.6
20260507093802 11 283 0.0 3.2 0.00 0.00 0.00 69 1013.4
20260507093300 11 347 0.0 1.6 0.00 0.00 0.00 69 1013.2
20260507092758 11 266 1.6 4.8 0.00 0.00 0.00 69 1013.6
20260507092254 11 270 0.0 1.6 0.00 0.00 0.00 71 1013.4
20260507091750 11 315 0.0 0.0 0.00 0.00 0.00 71 1013.4
20260507091247 12 328 0.0 3.2 0.00 0.00 0.00 69 1013.6
20260507090747 12 316 1.6 4.8 0.00 0.00 0.00 69 1013.6
20260507090244 12 324 0.0 3.2 0.00 0.00 0.00 71 1013.6
20260507085741 12 332 1.6 1.6 0.00 0.00 0.00 71 1013.6
20260507085238 12 340 1.6 3.2 0.00 0.00 0.00 70 1013.7
20260507084735 12 314 1.6 3.2 0.00 0.00 0.00 70 1013.6
20260507084231 12 335 4.8 6.4 0.00 0.00 0.00 70 1013.5
20260507083729 12 296 1.6 3.2 0.00 0.00 0.00 70 1013.7
20260507083226 12 339 0.0 4.8 0.00 0.00 0.00 71 1013.6
20260507082722 12 323 1.6 3.2 0.00 0.00 0.00 70 1013.4
20260507082218 12 332 3.2 4.8 0.00 0.00 0.00 70 1013.7
20260507081715 12 333 3.2 3.2 0.00 0.00 0.00 71 1013.3
20260507081211 12 270 6.4 9.7 0.00 0.00 0.00 71 1013.3
20260507080707 12 344 0.0 6.4 0.00 0.00 0.00 72 1013.0
20260507080204 12 339 1.6 4.8 0.00 0.00 0.00 73 1013.3
20260507075659 12 332 1.6 3.2 0.00 0.00 0.00 73 1013.2
20260507075155 12 317 0.0 3.2 0.00 0.00 0.00 73 1013.2
20260507074652 12 336 1.6 6.4 0.00 0.00 0.00 72 1012.9
20260507074150 12 332 3.2 4.8 0.00 0.00 0.00 72 1012.9
20260507073647 12 338 1.6 4.8 0.00 0.00 0.00 74 1012.9
20260507073143 12 178 1.6 4.8 0.00 0.00 0.00 73 1013.0
20260507072641 12 326 0.0 3.2 0.00 0.00 0.00 75 1012.9
20260507072138 12 257 0.0 3.2 0.00 0.00 0.00 75 1012.6
20260507071635 12 319 3.2 3.2 0.00 0.00 0.00 76 1012.7
20260507071131 12 293 0.0 4.8 0.00 0.00 0.00 76 1012.9
20260507070628 12 284 1.6 1.6 0.00 0.00 0.00 76 1012.8
20260507070126 12 305 0.0 1.6 0.00 0.00 0.00 79 1013.0
20260507065622 12 282 0.0 1.6 0.00 0.00 0.00 79 1012.8
20260507065119 12 293 0.0 0.0 0.00 0.00 0.00 78 1013.1
20260507064617 12 295 0.0 1.6 0.00 0.00 0.00 77 1013.0
20260507064115 12 281 3.2 3.2 0.00 0.00 0.00 76 1013.1
20260507063612 12 318 3.2 3.2 0.00 0.00 0.00 76 1013.4
20260507063109 12 308 1.6 3.2 0.00 0.00 0.00 77 1013.5
20260507062606 12 327 1.6 4.8 0.00 0.00 0.00 76 1013.4
20260507062103 12 308 3.2 4.8 0.00 0.00 0.00 77 1013.5
20260507061601 12 312 0.0 1.6 0.00 0.00 0.00 77 1013.5
20260507061059 12 300 0.0 3.2 0.00 0.00 0.00 78 1013.7
20260507060557 12 271 0.0 3.2 0.00 0.00 0.00 77 1013.5
20260507060053 13 329 0.0 3.2 0.00 0.00 0.00 76 1013.6
20260507055548 13 312 1.6 3.2 0.00 0.00 0.00 77 1013.6
20260507055044 13 316 1.6 3.2 0.00 0.00 0.00 77 1013.6
20260507054540 13 283 0.0 4.8 0.00 0.00 0.00 78 1013.7
20260507054037 13 322 0.0 3.2 0.00 0.00 0.00 78 1013.3
20260507053535 13 87 0.0 1.6 0.00 0.00 0.00 79 1013.4
20260507053034 13 311 0.0 1.6 0.00 0.00 0.00 79 1013.4
20260507052531 13 328 1.6 3.2 0.00 0.00 0.00 79 1013.2
20260507052028 13 99 1.6 1.6 0.00 0.00 0.00 79 1013.1
20260507051526 13 297 0.0 0.0 0.00 0.00 0.00 80 1012.9
20260507051022 13 330 0.0 1.6 0.00 0.00 0.00 79 1013.2
20260507050518 13 325 0.0 3.2 0.00 0.00 0.00 79 1013.4
20260507050015 13 270 0.0 0.0 0.00 0.00 0.00 80 1013.2
20260507045512 13 267 1.6 3.2 0.00 0.00 0.00 79 1013.2
20260507045009 13 34 1.6 3.2 0.00 0.00 0.00 80 1013.3
20260507044506 13 291 0.0 4.8 0.00 0.00 0.00 80 1013.2
20260507044002 13 309 1.6 3.2 0.00 0.00 0.00 79 1013.2
20260507043458 13 322 0.0 6.4 0.00 0.00 0.00 80 1013.2
20260507042955 13 312 3.2 3.2 0.00 0.00 0.00 80 1012.4
20260507042452 13 349 0.0 1.6 0.00 0.00 0.00 79 1012.8
20260507041948 13 3 0.0 4.8 0.00 0.00 0.00 80 1012.8
20260507041445 13 335 0.0 4.8 0.00 0.00 0.00 80 1013.0
20260507040942 13 311 3.2 4.8 0.00 0.00 0.00 80 1013.2
20260507040437 13 325 1.6 3.2 0.00 0.00 0.00 80 1013.1
20260507035933 13 308 3.2 4.8 0.00 0.00 0.00 81 1013.2
20260507035430 13 319 0.0 3.2 0.00 0.00 0.00 81 1012.9
20260507034927 13 287 1.6 1.6 0.00 0.00 0.00 82 1012.8
20260507034424 13 305 0.0 4.8 0.00 0.00 0.00 82 1012.7
20260507033922 13 340 0.0 4.8 0.00 0.00 0.00 82 1013.0
20260507033419 13 340 1.6 4.8 0.00 0.00 0.00 81 1012.9
20260507032916 13 333 3.2 11.3 0.00 0.00 0.00 82 1012.8
20260507032413 13 341 3.2 9.7 0.00 0.00 0.00 83 1013.0
20260507031909 13 311 3.2 4.8 0.00 0.00 0.00 83 1013.2
20260507031406 14 346 0.0 1.6 0.00 0.00 0.00 83 1012.8
20260507030903 14 86 0.0 0.0 0.00 0.00 0.00 83 1012.7
20260507030400 14 95 0.0 1.6 0.00 0.00 0.00 82 1013.1
20260507025857 14 356 1.6 3.2 0.00 0.00 0.00 82 1013.0
20260507025354 14 90 0.0 0.0 0.00 0.00 0.00 82 1012.7
20260507024852 15 334 1.6 3.2 0.00 0.00 0.00 81 1012.8
20260507024349 15 99 1.6 1.6 0.00 0.00 0.00 81 1012.5
20260507023844 15 320 1.6 3.2 0.00 0.00 0.00 80 1012.7
20260507023342 15 304 1.6 3.2 0.00 0.00 0.00 80 1012.4
20260507022839 15 331 0.0 1.6 0.00 0.00 0.00 80 1012.3
20260507022335 15 326 1.6 3.2 0.00 0.00 0.00 79 1012.5
20260507021831 15 338 3.2 4.8 0.00 0.00 0.00 80 1012.4
20260507021327 15 349 0.0 1.6 0.00 0.00 0.00 81 1012.1
20260507020825 15 354 0.0 0.0 0.00 0.00 0.00 81 1012.5
20260507020321 15 289 0.0 1.6 0.00 0.00 0.00 81 1012.2
20260507015819 15 295 1.6 3.2 0.00 0.00 0.00 80 1012.0
20260507015316 16 306 0.0 0.0 0.00 0.00 0.00 81 1012.2
20260507014813 16 306 0.0 0.0 0.00 0.00 0.00 81 1012.2
20260507014310 16 306 0.0 1.6 0.00 0.00 0.00 80 1012.1
20260507013806 16 279 1.6 3.2 0.00 0.00 0.00 81 1012.5
20260507013303 16 275 0.0 0.0 0.00 0.00 0.00 80 1012.4
20260507012801 16 275 1.6 3.2 0.00 0.00 0.00 81 1011.8
20260507012256 16 268 0.0 1.6 0.00 0.00 0.00 82 1011.6
20260507011754 16 294 1.6 1.6 0.00 0.00 0.00 82 1012.0
20260507011250 -17 0.0 0.0 0.00 0.00 0.00 1011.9
20260507010750 16 262 0.0 1.6 0.00 0.00 0.00 80 1011.7
20260507010246 16 262 0.0 1.6 0.00 0.00 0.00 80 1011.7
20260507005744 16 258 4.8 6.4 0.00 0.00 0.00 80 1012.0
20260507005240 16 299 1.6 1.6 0.00 0.00 0.00 85 1012.0
20260507004736 16 299 3.2 3.2 0.00 0.00 0.00 85 1012.2
20260507004235 16 285 0.0 0.0 0.00 0.00 0.00 85 1012.2
20260507003730 17 284 0.0 0.0 0.00 0.00 0.00 83 1011.9
20260507003226 17 284 0.0 0.0 0.00 0.00 0.00 83 1012.0
20260507002722 17 284 0.0 0.0 0.00 0.00 0.00 83 1012.0
20260507002218 17 284 0.0 0.0 0.00 0.00 0.00 82 1012.0
20260507001715 17 3 0.0 0.0 0.00 0.00 0.00 81 1011.8
20260507001212 17 98 0.0 1.6 0.00 0.00 0.00 81 1011.6
20260507000708 17 277 3.2 3.2 0.00 0.00 0.00 80 1011.7
20260507000205 17 283 8.0 9.7 0.00 0.00 0.00 81 1011.6
20260506235701 18 354 0.0 0.0 0.00 0.00 0.00 82 1011.3
20260506235157 18 354 0.0 0.0 0.00 0.00 0.00 82 1011.0
20260506234654 18 354 0.0 0.0 0.00 0.00 0.00 82 1011.3
20260506234151 18 276 3.2 4.8 0.00 0.00 0.00 80 1011.1
20260506233648 18 276 3.2 4.8 0.00 0.00 0.00 80 1010.9
20260506233145 18 263 1.6 1.6 0.00 0.00 0.00 80 1010.7
20260506232641 18 263 1.6 3.2 0.00 0.00 0.00 80 1010.6
20260506232137 18 273 4.8 6.4 0.00 0.00 0.00 80 1010.7
20260506231634 18 302 1.6 3.2 0.00 0.00 0.00 79 1010.5
20260506231132 18 284 6.4 6.4 0.00 0.00 0.00 80 1010.3
20260506230629 19 291 1.6 3.2 0.00 0.00 0.00 79 1010.2
20260506230126 19 344 1.6 3.2 0.00 0.00 0.00 80 1010.1
20260506225622 19 330 3.2 4.8 0.00 0.00 0.00 82 1010.2
20260506225119 20 328 0.0 1.6 0.00 0.00 0.00 82 1009.8
20260506224616 19 332 1.6 3.2 0.00 0.00 0.00 81 1010.0
20260506224112 20 318 3.2 3.2 0.00 0.00 0.00 82 1010.1
20260506223608 20 318 3.2 3.2 0.00 0.00 0.00 82 1010.2
20260506223105 20 315 3.2 3.2 0.00 0.00 0.00 81 1010.1
20260506222602 19 314 1.6 3.2 0.00 0.00 0.00 81 1010.0
20260506222058 20 326 3.2 4.8 0.00 0.00 0.00 81 1009.9
20260506221556 -17 0.0 0.0 0.00 0.00 0.00 1009.8
20260506221054 -17 0.0 0.0 0.00 0.00 0.00 1009.9
20260506220549 20 137 0.0 0.0 0.00 0.00 0.00 84 1009.7
20260506220045 20 137 0.0 0.0 0.00 0.00 0.00 84 1009.7
20260506215542 20 121 0.0 0.0 0.00 0.00 0.00 85 1009.2
20260506215038 20 123 0.0 0.0 0.00 0.00 0.00 86 1009.5
20260506214535 20 124 0.0 0.0 0.00 0.00 0.00 86 1009.2
20260506214032 20 124 0.0 0.0 0.00 0.00 0.00 86 1009.4
20260506213530 20 124 0.0 0.0 0.00 0.00 0.00 87 1009.5
20260506213027 20 123 0.0 0.0 0.00 0.00 0.00 87 1009.4
20260506212524 20 123 0.0 0.0 0.00 0.00 0.00 88 1009.4
20260506212019 20 123 0.0 0.0 0.00 0.00 0.00 86 1009.6
20260506211515 20 133 0.0 0.0 0.00 0.00 0.00 85 1009.2
20260506211012 20 134 0.0 1.6 0.00 0.00 0.00 86 1009.1
20260506210508 21 110 0.0 1.6 0.00 0.00 0.00 86 1009.0
20260506210005 20 110 0.0 0.0 0.00 0.00 0.00 87 1008.9
20260506205502 20 59 0.0 0.0 0.00 0.00 0.00 87 1008.7
20260506204957 20 30 0.0 0.0 0.00 0.00 0.00 90 1009.0